Location: Miramichi City (Newcastle)
(46.9830°N, 65.5670°W)
Time: 01:01:16
(UTC-03:00)

Iridium 12 - Visible Passes

Search period start: 01 October 2014 00:00
Search period end: 11 October 2014 00:00
Orbit: 776 x 779 km, 86.4° (Epoch: 30 September)

Date Brightness Start Highest point End Pass type
(mag) Time Alt. Az. Time Alt. Az. Time Alt. Az.
01 Oct 8.3 02:30:27 13° NE 02:30:27 13° NE 02:31:18 10° NE visible
01 Oct 7.0 04:10:56 28° N 04:10:56 28° N 04:13:23 10° N visible
02 Oct 7.5 03:37:47 24° NNE 03:37:47 24° NNE 03:39:50 10° N visible
02 Oct 7.6 05:18:16 13° NW 05:18:16 13° NW 05:19:16 10° NNW visible
03 Oct 8.0 03:04:37 18° NNE 03:04:37 18° NNE 03:06:03 10° NNE visible
03 Oct 7.5 04:45:06 17° NNW 04:45:06 17° NNW 04:46:32 10° NNW visible
04 Oct 8.4 02:31:26 12° NNE 02:31:26 12° NNE 02:31:59 10° NNE visible
04 Oct 7.6 04:11:55 19° NNW 04:11:55 19° NNW 04:13:22 10° N visible
05 Oct 7.8 03:38:43 18° N 03:38:43 18° N 03:39:57 10° N visible
06 Oct 8.2 03:05:31 15° NNE 03:05:31 15° NNE 03:06:19 10° NNE visible
06 Oct 7.9 04:46:00 11° NNW 04:46:00 11° NNW 04:46:13 10° NNW visible
07 Oct 8.5 02:32:17 11° NNE 02:32:17 11° NNE 02:32:26 10° NNE visible
07 Oct 8.0 04:12:46 12° NNW 04:12:46 12° NNW 04:13:16 10° NNW visible
08 Oct 8.1 03:39:32 12° N 03:39:32 12° N 03:39:59 10° N visible
09 Oct 8.4 03:06:17 11° N 03:06:17 11° N 03:06:28 10° N visible
